Meteo pe oră la Bolshie Shirdany

Astăzi, 8 Mai, Sâmbătă

Timp Temperatura Precipitaţii Vânt Presiune Umiditate
00:00 +9°C° 0.3 mm 2 m/s 752 mmHg 91%
01:00 +8°C° 0.5 mm 2 m/s 752 mmHg 92%
02:00 +8°C° 0.5 mm 2 m/s 752 mmHg 92%
03:00 +8°C° 0.5 mm 2 m/s 753 mmHg 92%
04:00 +8°C° 0.1 mm 2 m/s 753 mmHg 91%
05:00 +8°C° 0.1 mm 2 m/s 753 mmHg 91%
06:00 +8°C° 0.1 mm 2 m/s 753 mmHg 90%
07:00 +8°C° 0 mm 2 m/s 753 mmHg 89%
08:00 +9°C° 0 mm 2 m/s 753 mmHg 88%
09:00 +9°C° 0 mm 3 m/s 753 mmHg 87%
10:00 +10°C° 0 mm 2 m/s 753 mmHg 86%
11:00 +10°C° 0 mm 2 m/s 753 mmHg 85%
12:00 +12°C° 0 mm 2 m/s 753 mmHg 84%
13:00 +13°C° 0 mm 2 m/s 752 mmHg 77%
14:00 +15°C° 0 mm 2 m/s 752 mmHg 71%
15:00 +17°C° 0 mm 2 m/s 751 mmHg 64%
16:00 +16°C° 0 mm 2 m/s 751 mmHg 67%
17:00 +16°C° 0 mm 2 m/s 751 mmHg 69%
18:00 +16°C° 0 mm 2 m/s 750 mmHg 72%
19:00 +15°C° 0 mm 2 m/s 750 mmHg 76%
20:00 +13°C° 0 mm 2 m/s 750 mmHg 80%
21:00 +11°C° 0 mm 3 m/s 750 mmHg 85%
22:00 +11°C° 0 mm 3 m/s 749 mmHg 84%
23:00 +10°C° 0 mm 3 m/s 749 mmHg 84%

Mâine, 9 Mai, Duminică

Timp Temperatura Precipitaţii Vânt Presiune Umiditate
00:00 +10°C° 0 mm 3 m/s 749 mmHg 84%
01:00 +10°C° 0 mm 3 m/s 749 mmHg 86%
02:00 +10°C° 0 mm 3 m/s 749 mmHg 87%
03:00 +9°C° 0 mm 2 m/s 749 mmHg 88%
04:00 +10°C° 0 mm 3 m/s 749 mmHg 85%
05:00 +11°C° 0 mm 3 m/s 749 mmHg 83%
06:00 +12°C° 0 mm 3 m/s 749 mmHg 80%
07:00 +13°C° 0 mm 4 m/s 749 mmHg 74%
08:00 +14°C° 0 mm 5 m/s 749 mmHg 68%
09:00 +16°C° 0 mm 6 m/s 749 mmHg 63%
10:00 +15°C° 0 mm 5 m/s 749 mmHg 65%
11:00 +15°C° 0 mm 5 m/s 749 mmHg 68%
12:00 +15°C° 0 mm 5 m/s 750 mmHg 71%
13:00 +16°C° 0 mm 5 m/s 750 mmHg 67%
14:00 +17°C° 0 mm 5 m/s 750 mmHg 63%
15:00 +19°C° 0 mm 5 m/s 750 mmHg 59%
16:00 +18°C° 0 mm 4 m/s 750 mmHg 64%
17:00 +18°C° 0 mm 3 m/s 750 mmHg 69%
18:00 +17°C° 0 mm 2 m/s 750 mmHg 75%
19:00 +16°C° 1.1 mm 2 m/s 750 mmHg 82%
20:00 +15°C° 1.1 mm 2 m/s 750 mmHg 89%
21:00 +14°C° 1.1 mm 1 m/s 751 mmHg 97%
22:00 +13°C° 0.6 mm 2 m/s 751 mmHg 96%
23:00 +11°C° 0.6 mm 3 m/s 752 mmHg 95%

Poimâine, 10 Mai, Luni

Timp Temperatura Precipitaţii Vânt Presiune Umiditate
00:00 +10°C° 0.6 mm 4 m/s 752 mmHg 94%
01:00 +10°C° 0 mm 4 m/s 753 mmHg 94%
02:00 +8°C° 0 mm 4 m/s 754 mmHg 94%
03:00 +7°C° 0 mm 4 m/s 754 mmHg 94%
04:00 +7°C° 0 mm 4 m/s 755 mmHg 93%
05:00 +7°C° 0 mm 4 m/s 756 mmHg 92%
06:00 +7°C° 0 mm 5 m/s 756 mmHg 90%
07:00 +7°C° 0.2 mm 5 m/s 757 mmHg 90%
08:00 +7°C° 0.2 mm 5 m/s 757 mmHg 89%
09:00 +7°C° 0.2 mm 5 m/s 758 mmHg 89%
10:00 +7°C° 0 mm 5 m/s 758 mmHg 87%
11:00 +7°C° 0 mm 5 m/s 759 mmHg 86%
12:00 +8°C° 0 mm 5 m/s 759 mmHg 85%
13:00 +8°C° 0 mm 5 m/s 760 mmHg 82%
14:00 +9°C° 0 mm 5 m/s 760 mmHg 79%
15:00 +9°C° 0 mm 5 m/s 760 mmHg 76%
16:00 +11°C° 0 mm 4 m/s 760 mmHg 74%
17:00 +11°C° 0 mm 4 m/s 761 mmHg 72%
18:00 +11°C° 0 mm 4 m/s 761 mmHg 69%
19:00 +10°C° 0 mm 3 m/s 761 mmHg 74%
20:00 +8°C° 0 mm 2 m/s 761 mmHg 79%
21:00 +7°C° 0 mm 2 m/s 762 mmHg 84%
22:00 +7°C° 0 mm 1 m/s 762 mmHg 85%
23:00 +7°C° 0 mm 1 m/s 762 mmHg 86%

11 Mai, Marţi

Timp Temperatura Precipitaţii Vânt Presiune Umiditate
00:00 +6°C° 0 mm 1 m/s 763 mmHg 87%
01:00 +5°C° 0 mm 2 m/s 763 mmHg 87%
02:00 +5°C° 0 mm 2 m/s 763 mmHg 87%
03:00 +4°C° 0 mm 2 m/s 763 mmHg 88%
04:00 +5°C° 0 mm 2 m/s 763 mmHg 84%
05:00 +6°C° 0 mm 2 m/s 764 mmHg 81%
06:00 +7°C° 0 mm 2 m/s 764 mmHg 78%
07:00 +9°C° 0 mm 2 m/s 764 mmHg 70%
08:00 +11°C° 0 mm 3 m/s 764 mmHg 62%
09:00 +13°C° 0 mm 3 m/s 764 mmHg 54%
10:00 +14°C° 0 mm 4 m/s 764 mmHg 50%
11:00 +15°C° 0 mm 4 m/s 764 mmHg 47%
12:00 +17°C° 0 mm 4 m/s 764 mmHg 43%
13:00 +17°C° 0 mm 4 m/s 764 mmHg 42%
14:00 +17°C° 0 mm 4 m/s 763 mmHg 42%
15:00 +18°C° 0 mm 4 m/s 763 mmHg 41%
16:00 +17°C° 0 mm 3 m/s 763 mmHg 47%
17:00 +17°C° 0 mm 3 m/s 763 mmHg 53%
18:00 +16°C° 0 mm 2 m/s 763 mmHg 59%
19:00 +14°C° 0 mm 2 m/s 763 mmHg 61%
20:00 +13°C° 0 mm 1 m/s 763 mmHg 64%
21:00 +11°C° 0 mm 1 m/s 764 mmHg 66%
22:00 +11°C° 0 mm 1 m/s 764 mmHg 67%
23:00 +11°C° 0 mm 1 m/s 764 mmHg 67%

12 Mai, Miercuri

Timp Temperatura Precipitaţii Vânt Presiune Umiditate
00:00 +10°C° 0 mm 1 m/s 764 mmHg 67%
01:00 +10°C° 0 mm 1 m/s 764 mmHg 69%
02:00 +10°C° 0 mm 1 m/s 764 mmHg 70%
03:00 +9°C° 0 mm 1 m/s 764 mmHg 71%
04:00 +10°C° 0 mm 1 m/s 764 mmHg 70%
05:00 +11°C° 0 mm 1 m/s 764 mmHg 70%
06:00 +12°C° 0 mm 1 m/s 764 mmHg 69%
07:00 +14°C° 0 mm 1 m/s 764 mmHg 63%
08:00 +16°C° 0 mm 1 m/s 764 mmHg 57%
09:00 +17°C° 0 mm 2 m/s 764 mmHg 52%
10:00 +19°C° 0 mm 2 m/s 763 mmHg 50%
11:00 +20°C° 0 mm 2 m/s 763 mmHg 49%
12:00 +22°C° 0 mm 1 m/s 763 mmHg 48%
13:00 +22°C° 0 mm 1 m/s 763 mmHg 47%
14:00 +23°C° 0 mm 1 m/s 762 mmHg 46%
15:00 +23°C° 0 mm 1 m/s 762 mmHg 46%
16:00 +21°C° 0 mm 0 m/s 762 mmHg 50%
17:00 +20°C° 0 mm 0 m/s 762 mmHg 54%
18:00 +20°C° 0 mm 0 m/s 762 mmHg 59%
19:00 +18°C° 0 mm 0 m/s 761 mmHg 62%
20:00 +17°C° 0 mm 0 m/s 761 mmHg 66%
21:00 +15°C° 0 mm 0 m/s 761 mmHg 69%
22:00 +14°C° 0 mm 0 m/s 761 mmHg 72%
23:00 +15°C° 0 mm 1 m/s 761 mmHg 75%

13 Mai, Joi

Timp Temperatura Precipitaţii Vânt Presiune Umiditate
00:00 +14°C° 0 mm 1 m/s 762 mmHg 77%
01:00 +14°C° 0 mm 1 m/s 761 mmHg 79%
02:00 +14°C° 0 mm 1 m/s 761 mmHg 81%
03:00 +13°C° 0 mm 1 m/s 761 mmHg 83%
04:00 +14°C° 0 mm 1 m/s 761 mmHg 81%
05:00 +15°C° 0 mm 1 m/s 761 mmHg 79%
06:00 +16°C° 0 mm 1 m/s 761 mmHg 77%
07:00 +19°C° 0 mm 1 m/s 761 mmHg 72%
08:00 +20°C° 0 mm 1 m/s 761 mmHg 67%
09:00 +21°C° 0 mm 2 m/s 761 mmHg 61%
10:00 +23°C° 0 mm 1 m/s 761 mmHg 57%
11:00 +24°C° 0 mm 1 m/s 761 mmHg 52%
12:00 +25°C° 0 mm 1 m/s 760 mmHg 48%
13:00 +25°C° 0 mm 1 m/s 760 mmHg 46%
14:00 +26°C° 0 mm 1 m/s 760 mmHg 45%
15:00 +26°C° 0 mm 1 m/s 760 mmHg 43%
16:00 +25°C° 0 mm 1 m/s 760 mmHg 47%
17:00 +25°C° 0 mm 1 m/s 760 mmHg 52%
18:00 +24°C° 0 mm 1 m/s 759 mmHg 56%
19:00 +22°C° 0 mm 1 m/s 759 mmHg 60%
20:00 +21°C° 0 mm 1 m/s 759 mmHg 64%
21:00 +19°C° 0 mm 1 m/s 759 mmHg 69%
22:00 +18°C° 0 mm 1 m/s 759 mmHg 71%
23:00 +18°C° 0 mm 1 m/s 760 mmHg 74%
Arată mai mult

Formular de consimțământ

Meteoprog și furnizorii noștri de servicii pot stoca și accesa date personale, precum cookies, identificatori de dispozitiv sau alte tehnologii similare pe dispozitivul dumneavoastră și procesa astfel de date pentru a personaliza conținutul și reclamele, dar și pentru a oferi caracteristici de social media și pentru a analiza traficul.

  • Stocarea și/sau accesarea informațiilor pe dispozitivul dumneavoastră

    Cookies, identificatori de dispozitiv sau alte informații pot fi stocate sau accesate pe dispozitiv în scopurile indicate mai sus.

  • Reclame și conținut personalizat, evaluarea reclamelor și a conținutului, informații despre audiențe și dezvoltarea produselor

    Reclamele și conținutul pot fi personalizate pe baza unui profil. Pot fi adăugate date suplimentare pentru a personaliza mai bine reclamele și conținutul. Performanța reclamelor și conținutului poate fi măsurată. Pot fi obținute informații despre utilizatorii care au văzut reclamele și conținutul. Aceste date pot fi utilizate pentru a dezvolta sau îmbunătăți experiența utilizatorilor, sistemele și software-ul.

Dând clic pe ‘Sunt de acord’, permiteți utilizarea cookie-urilor menționate, a identificatorilor de dispozitiv, balizelor web sau altor tehnologii similare. Setările pot fi modificate din browser-ul dispozitivului dumneavoastră.

În anumite scopuri, interesele legitime pot prima asupra consimțământului. Puteți citi mai multe informații în acest sens în Politica privind Confidențialitatea Datelor și Cookie.